Погода в Яхниках

Украина / Полтавская область     50°25′27″N   33°09′00″E
темп.,
°C
ветер,
м/с
пор.,
м/с
влажн.,
%
обл.,
%
осадки,
мм/ч
давл.,
гПа
погр.,
м
19 апреля, пн
пн1900:00+5ссв488975 0.0 1017302
03:00+3с239426 0.0 101847
06:00+3с369555 0.0 1017168
09:00+7ссв3586100 0.0 1017365
12:00+9ссв346760 0.1 1016696
15:00+12с3455100 0.1 10151563
18:00+11с236158 0.1 1014843
21:00+8св357795 0.3 1015119
20 апреля, вт
вт2000:00+6всв228389 0.0 101431
03:00+5ссв338698 0.0 101358
06:00+4ссв349033 0.0 101183
09:00+8св3477100 0.0 1011275
12:00+11св4467100 0.0 1009875
15:00+10ссв5573100 0.2 1008883
18:00+9с4580100 0.0 1006443
21:00+8ссз4791100 0.3 1006361
21 апреля, ср
ср2100:00+8сз3695100 1.6 1007327
03:00+7зсз6991100 1.9 1007574
06:00+5з499459 0.2 1009309
09:00+8зсз587527 0.2 1011665
12:00+10зюз576696 0.2 10111179
15:00+12з6756100 0.8 10121557
18:00+11з4662100 0.2 1013792
21:00+8зюз2375100 0.2 101440
22 апреля, чт
чт2200:00+7ююз348135 0.0 101566
03:00+6ююз388187 0.0 1015134
06:00+6ююз378553 0.0 1016129
09:00+11юз477142 0.0 1017371
12:00+15юз685425 0.0 10171456
15:00+17юз7948100 0.5 10172242
18:00+16ююз585562 0.1 1017584
21:00+12ю5126783 0.1 1018345
23 апреля, пт
пт2300:00+10ю4128431 0.3 1018247
03:00+10ю41283100 0.5 1018328
06:00+8ю5118295 0.0 1018284
09:00+11ю7127342 0.0 1018490
12:00+16ю811572 0.0 10171137
15:00+16ю71155100 0.1 10151025
18:00+16ю8125871 0.3 1014970
21:00+9зсз4692100 2.9 1016430